Regional Weather Roundup
Issued by NWS

Current Version | Previous Version | Text Only | Print | Product List | Glossary On
Versions: 1 2 3 4 5 6 7 8 9 10 11 12 13 14 15 16 17 18 19 20 21 22 23 24 25 26 27 28 29 30 31 32 33 34 35 36 37 38 39 40 41 42 43 44 45 46 47 48 49 50
000
ASUS46 KSEW 240610
RWRWA

WASHINGTON REGIONAL WEATHER ROUNDUP
NATIONAL WEATHER SERVICE SEATTLE WA
1100 PM PDT SAT MAY 23 2015

NOTE:"FAIR" INDICATES FEW OR NO CLOUDS BELOW 12,000 FEET WITH NO
SIGNIFICANT WEATHER AND/OR OBSTRUCTIONS TO VISIBILITY.

WAZ505-507>509-240700-
SEATTLE, TACOMA, EVERETT, AND VICINITY

CITY           SKY/WX    TMP DP  RH WIND       PRES   REMARKS
EVERETT        CLOUDY    55  50  83 N3        30.17S
6HR MIN TEMP:  55; 6HR MAX TEMP:  60;

BOEING FIELD   CLOUDY    61  51  70 S5        30.17S
6HR MIN TEMP:  61; 6HR MAX TEMP:  64;

RENTON         CLOUDY    60  51  72 S5        30.17S
6HR MIN TEMP:  60; 6HR MAX TEMP:  63;

SEATAC AIRPORT CLOUDY    57  51  80 SW6       30.18S
6HR MIN TEMP:  57; 6HR MAX TEMP:  61;

JBLM-MCCHORD   CLOUDY    57  52  84 SW5       30.18S
6HR MIN TEMP:  57; 6HR MAX TEMP:  61;

PUYALLUP       CLOUDY    55  54  94 CALM      30.19S
BREMERTON      CLOUDY    54  52  94 S3        30.21R
6HR MIN TEMP:  54; 6HR MAX TEMP:  59;

JBLM-FT LEWIS  CLOUDY    56  52  86 SW6       30.18R
6HR MIN TEMP:  56; 6HR MAX TEMP:  59;

TACOMA NARROWS CLOUDY    55  49  80 S6        30.18S
6HR MIN TEMP:  55; 6HR MAX TEMP:  60;

$$

WAZ001-503-506-510-514-515-240700-
NORTH INTERIOR

CITY           SKY/WX    TMP DP  RH WIND       PRES   REMARKS
BELLINGHAM     MOCLDY    55  51  86 S8        30.15S
6HR MIN TEMP:  55; 6HR MAX TEMP:  60;

FRIDAY HARBOR  PTCLDY    51  48  89 S5        30.16R
6HR MIN TEMP:  51; 6HR MAX TEMP:  58; 6HR PCP: TRACE;

EASTSOUND      CLEAR     55  50  82 S5        30.13R
PORT ANGELES   CLOUDY    52  48  86 W12       30.17S
6HR MIN TEMP:  52; 6HR MAX TEMP:  58;

PORT TOWNSEND  CLOUDY    52  52 100 CALM      30.17S
NAS WHIDBEY    CLOUDY    55  52  89 SW5       30.21S
6HR MIN TEMP:  54; 6HR MAX TEMP:  64;

ARLINGTON      CLOUDY    55  48  76 NW8       30.18R
6HR MIN TEMP:  55; 6HR MAX TEMP:  63;

BURLINGTON     CLOUDY    54  50  87 SW3       30.18R
$$

WAZ020-022-039-040-504-511-512-240700-
SOUTHWEST INTERIOR

CITY           SKY/WX    TMP DP  RH WIND       PRES   REMARKS
SHELTON        CLOUDY    52  48  86 SW9       30.17R
6HR MIN TEMP:  52; 6HR MAX TEMP:  59;

OLYMPIA        CLOUDY    54  48  80 SW7       30.19R
6HR MIN TEMP:  54; 6HR MAX TEMP:  62;

CHEHALIS       CLOUDY    55  50  82 CALM      30.20S
KELSO          CLOUDY    55  46  71 W5        30.24S
6HR MIN TEMP:  55; 6HR MAX TEMP:  59;

VANCOUVER      CLOUDY    57  49  74 NW7       30.19S
6HR MIN TEMP:  57; 6HR MAX TEMP:  62;

SCAPPOOSE, OR  CLOUDY    56  47  71 N7        30.19S
6HR MIN TEMP:  56; 6HR MAX TEMP:  62;

PORTLAND, OR   CLOUDY    57  50  77 NW7       30.19S
6HR MIN TEMP:  57; 6HR MAX TEMP:  63;

$$

WAZ021-516-517-240700-
WASHINGTON COAST

CITY           SKY/WX    TMP DP  RH WIND       PRES   REMARKS
FORKS          CLOUDY    51  50  96 CALM      30.20S
6HR MIN TEMP:  50; 6HR MAX TEMP:  54; 6HR PCP: TRACE;

HOQUIAM        CLOUDY    53  51  93 W6        30.21R FOG
6HR MIN TEMP:  53; 6HR MAX TEMP:  58; 6HR PCP: TRACE;

ASTORIA, OR    CLOUDY    53  50  89 W5        30.22S
6HR MIN TEMP:  52; 6HR MAX TEMP:  58; 6HR PCP: TRACE;

$$

WAZ019-023-024-040-518-519-240700-
CASCADE MOUNTAINS AND COLUMBIA GORGE

CITY           SKY/WX    TMP DP  RH WIND       PRES   REMARKS
TROUTDALE, OR  CLOUDY    58  50  75 NW5       30.18S
6HR MIN TEMP:  58; 6HR MAX TEMP:  61;

THE DALLES, OR CLEAR     61  49  64 NW17G28   30.05S
6HR MIN TEMP:  60; 6HR MAX TEMP:  67;

$$

WAZ026-027-041>044-520-521-240700-
EAST SLOPES

CITY           SKY/WX    TMP DP  RH WIND       PRES   REMARKS
OMAK           MOCLDY    68  42  38 NW9       29.97R
6HR MIN TEMP:  68; 6HR MAX TEMP:  86;

WENATCHEE      PTCLDY    68  48  48 N15       29.97R
6HR MIN TEMP:  68; 6HR MAX TEMP:  85;

ELLENSBURG     PTCLDY    58  47  66 NW20      30.02S
6HR MIN TEMP:  58; 6HR MAX TEMP:  69;

YAKIMA         PTCLDY    68  46  45 N10       29.99S
6HR MIN TEMP:  68; 6HR MAX TEMP:  83; 6HR PCP: TRACE;

$$

WAZ028-034-035-240700-
COLUMBIA BASIN

CITY           SKY/WX    TMP DP  RH WIND       PRES   REMARKS
EPHRATA        MOCLDY    71  47  42 NW9       29.93F
6HR MIN TEMP:  68; 6HR MAX TEMP:  82;

MOSES LAKE     MOCLDY    69  54  58 W6        29.93F
6HR MIN TEMP:  69; 6HR MAX TEMP:  82;

PASCO          MOCLDY    67  51  56 S8        29.95R
6HR MIN TEMP:  67; 6HR MAX TEMP:  82;

HERMISTON, OR  PTCLDY    62  49  62 SW12      29.98R
6HR MIN TEMP:  62; 6HR MAX TEMP:  81;

$$

WAZ036>038-240700-
NORTHEAST WASHINGTON

CITY           SKY/WX    TMP DP  RH WIND       PRES   REMARKS
SPOKANE GEIGER MOCLDY    67  48  50 S9        29.99R
6HR MIN TEMP:  67; 6HR MAX TEMP:  83;

SPOKANE FELTS  PTCLDY    66  51  58 CALM      29.98R
6HR MIN TEMP:  65; 6HR MAX TEMP:  85;

FAIRCHILD AFB  PTCLDY    60  49  66 SE10      29.99R
6HR MIN TEMP:  60; 6HR MAX TEMP:  81; 6HR PCP: TRACE;

COEURDALENE,ID CLEAR     66  41  39 S9        29.99R
6HR MIN TEMP:  66; 6HR MAX TEMP:  82;

DEER PARK      PTCLDY    63  41  44 E3        29.99R
6HR MIN TEMP:  55; 6HR MAX TEMP:  83;

$$

WAZ029>033-240700-
SOUTHEAST WASHINGTON

CITY           SKY/WX    TMP DP  RH WIND       PRES   REMARKS
PULLMAN        LGT RAIN  58  48  69 W12       30.02F
6HR MIN TEMP:  56; 6HR MAX TEMP:  70; 6HR PCP:  0.17;

LEWISTON, ID   MOCLDY    62  55  77 E7        29.98R
6HR MIN TEMP:  62; 6HR MAX TEMP:  79; 6HR PCP:  0.06;

WALLA WALLA    PTCLDY    66  53  63 S10       29.99R
6HR MIN TEMP:  65; 6HR MAX TEMP:  77;

PENDLETON, OR  CLEAR     60  48  64 SE5       30.00R
6HR MIN TEMP:  57; 6HR MAX TEMP:  75;

$$



USA.gov is the U.S. government's official web portal to all federal, state and local government web resources and services.